Regional Weather Roundup
Issued by NWS

Home | Current Version | Previous Version | Graphics & Text | Print | Product List | Glossary Off
Versions: 1 2 3 4 5 6 7 8 9 10 11 12 13 14 15 16 17 18 19 20 21 22 23 24 25 26 27 28 29 30 31 32 33 34 35 36 37 38 39 40 41 42 43 44 45 46 47 48 49 50

411
ASUS43 KMKX 242100
RWRWI

WISCONSIN REGIONAL WEATHER ROUNDUP
NATIONAL WEATHER SERVICE MILWAUKEE/SULLIVAN WI
300 PM CST FRI NOV 24 2017

NOTE: "FAIR" INDICATES FEW OR NO CLOUDS BELOW 12,000 FEET WITH NO
SIGNIFICANT WEATHER AND/OR OBSTRUCTIONS TO VISIBILITY.

WIZ001-002-006>008-014>016-023>028-242200-
NORTHWEST WISCONSIN

CITY           SKY/WX    TMP DP  RH WIND       PRES   REMARKS
SUPERIOR ARPT  CLOUDY    44  41  89 W9        29.36R
ASHLAND        CLOUDY    45  42  89 W12       29.34R
HAYWARD        LGT RAIN  47  42  83 VRB3      29.35R
SIREN          CLOUDY    48  42  78 W7        29.37R
CUMBERLAND     LGT RAIN  46  41  81 W9        29.35S
RICE LAKE      RAIN      53  41  64 W9        29.37R
CHETEK         CLOUDY    53  40  61 NW3       29.36S
LADYSMITH      CLOUDY    53  40  60 W5        29.36R
EAU CLAIRE     NOT AVBL
MENOMONIE      CLOUDY    57  39  52 W5        29.37S
NEW RICHMOND   DRIZZLE   54  40  59 W12       29.39R
OSCEOLA        CLOUDY    51  44  76 W6        29.41R
$$

WIZ003>005-009-010-017-018-242200-
NORTH CENTRAL WISCONSIN

CITY           SKY/WX    TMP DP  RH WIND       PRES   REMARKS
MANITOWISH WTR CLOUDY    48  42  81 SW6       29.30R
ARBOR VITAE    MOSUNNY   52  40  61 W8        29.31R
WOODRUFF       MOSUNNY   52  40  61 W8        29.31R
RHINELANDER    CLOUDY    53  39  59 W10       29.32R
EAGLE RIVER    CLOUDY    51  36  56 W10       29.31R
LAND O LAKES   CLOUDY    51  38  60 W6        29.30R
PHILLIPS       LGT RAIN  52  40  63 CALM      29.33R
TOMAHAWK       CLOUDY    53  38  56 W8        29.33R
MEDFORD        CLOUDY    52  38  58 W13       29.35R
MERRILL        CLOUDY    54  39  57 W13       29.34R
$$

WIZ029-030-035-036-043>047-242200-
CENTRAL WISCONSIN

CITY           SKY/WX    TMP DP  RH WIND       PRES   REMARKS
WAUSAU         MOSUNNY   56  38  50 NW17G24   29.32R
MOSINEE        NOT AVBL
MARSHFIELD     SUNNY     59  38  45 W12       29.34R
STEVENS POINT  CLOUDY    61  38  42 W14G23    29.32R
WAUPACA        SUNNY     67  36  31 SW17      29.30R
WAUTOMA        SUNNY     64  38  38 SW16G25   29.32R
WISC RAPIDS    SUNNY     63  40  42 W12G21    29.34R
CAMP DOUGLAS   SUNNY     63  40  42 W13G26    29.35R
$$

WIZ011>013-019>022-031-037>040-048>050-242200-
NORTHEAST WISCONSIN

CITY           SKY/WX    TMP DP  RH WIND       PRES   REMARKS
ANTIGO         CLOUDY    54  38  55 W13       29.31R
SHAWANO        SUNNY     65  37  35 W7        29.27R
OCONTO         PTCLDY    60  38  43 SW9       29.26S
STURGEON BAY   PTCLDY    49  40  71 S14       29.28R
GREEN BAY      SUNNY     61  40  45 SW16G23   29.29R
MANITOWOC      NOT AVBL
APPLETON       PTSUNNY   63  34  34 SW17      29.29R
CLINTONVILLE   SUNNY     64  36  34 SW13      29.27R
OSHKOSH        SUNNY     62  39  42 SW20G31   29.29R
$$

WIZ032>034-041-042-053>061-242200-
SOUTHWEST WISCONSIN

CITY           SKY/WX    TMP DP  RH WIND       PRES   REMARKS
LA CROSSE      SUNNY     62  41  46 W13       29.38R
SPARTA         SUNNY     62  40  45 W10G26    29.37R
VIROQUA        SUNNY     60  42  51 W14G22    29.39R
BOSCOBEL       SUNNY     68  39  34 SW10G22   29.37R
PRAIRIE DU CHI SUNNY     66  36  33 W10G20    29.38R
PLATTEVILLE    SUNNY     67  41  38 SW20      29.37F
$$

WIZ056-057-062-063-064-067-068-242200-
SOUTH CENTRAL WISCONSIN

CITY           SKY/WX    TMP DP  RH WIND       PRES   REMARKS
REEDSBURG      SUNNY     64  39  39 SW12G22   29.34R
BARABOO/DELLS  SUNNY     64  36  34 SW16G25   29.33R
LONE ROCK      NOT AVBL
MINERAL POINT  SUNNY     68  37  32 SW15G24   29.36F
MADISON        MOSUNNY   64  38  38 S13G21    29.34F
MIDDLETON      SUNNY     67  36  32 SW18G26   29.34F
WATERTOWN      SUNNY     64  39  39 S17G23    29.35F
MONROE         SUNNY     64  36  34 S22G29    29.37F
JANESVILLE     SUNNY     66  36  32 S21G26    29.38F
$$

WIZ051-052-058>065-066-070>072-242200-
SOUTHEAST WISCONSIN

CITY           SKY/WX    TMP DP  RH WIND       PRES   REMARKS
MILWAUKEE      MOSUNNY   64  39  39 S18G25    29.38F
WAUKESHA       SUNNY     63  36  36 S18G30    29.38F
MILWAUKEE/TIMM SUNNY     64  32  29 SW20G28   29.37F
RACINE         SUNNY     64  38  38 S15G30    29.41F
BURLINGTON     SUNNY     66  44  44 S18G32    29.40F
KENOSHA        SUNNY     64  38  38 S23G37    29.41F
FOND DU LAC    SUNNY     64  36  35 SW18G31   29.29F
SHEBOYGAN      SUNNY     65  39  38 S21G31    29.29F
WEST BEND      SUNNY     63  34  34 S17G29    29.33F
JUNEAU         SUNNY     63  38  40 S24G32    29.35F
$$

LSZ147-162-242200-
LAKE SUPERIOR

STATION/POSITION TIME  TEMP    WIND        PRES    WAVE
                       AIR SEA DIR/SP/G            HT/PER
                 (UTC) (F)     (DEG/KT/KT) (MB)    (FT/S)
DEVILS ISLAND    2000   42     240/ 18/ 21  992.0R
SAXON HARBOR     2030   49     230/  5/  8  992.2R
$$

LMZ867-665-643>646-242200-
LAKE MICHIGAN

STATION/POSITION TIME  TEMP    WIND        PRES    WAVE
                       AIR SEA DIR/SP/G            HT/PER
                 (UTC) (F)     (DEG/KT/KT) (MB)    (FT/S)
N MID LAKE BUOY  1950   49 47  190/ 29/ 37  991.1F  12/ 8
NORTHPORT PIER   2040   47     180/  5/ 19  991.9R
KEWAUNEE LAKESHO 2030   44     180/ 18/ 20  990.8F
SHEBOYGAN LAKESH 2000   45     180/ 26/ 27  993.5F
PORT WASHINGTON  2040   58     200/ 12/ 16  994.9F
MILWAUKEE LAKESH 2030   62     200/ 18/ 21   N/A
S MID LAKE BUOY  1950   50 47  180/ 25/ 29  998.7F   7/ 6
KENOSHA   LAKESH 2000   63     200/ 15/ 29  997.0
$$

TC  - TEMPERATURE IN CELSIUS
VSB - VISIBILITY IN STATUTE MILES
WCI - WIND CHILL INDEX
HX  - HEAT INDEX





USA.gov is the U.S. government's official web portal to all federal, state and local government web resources and services.